Theta_e
304 311 319 324 325 329 331 331 329 328 327 322 323 324 323 322 332 336 334 336 335 336 342 342 341 339 338 334 333 334 335 336 336 335 334 334 333 332 332 330 330 330 329 329 330 330 331 331 327
306 313 323 320 327 325 323 326 329 328 325 322 323 326 331 333 331 333 335 336 335 337 342 342 341 339 339 337 332 334 334 335 334 334 334 333 332 331 331 330 329 329 329 330 330 329 329 329 326
307 315 322 324 326 324 317 324 325 325 324 325 326 324 326 331 331 333 336 336 335 339 341 342 342 341 339 338 332 334 336 335 335 336 334 333 331 330 330 330 330 329 330 330 330 330 330 329 327
306 315 317 326 322 321 319 322 323 325 323 322 322 324 326 332 331 332 335 336 337 341 341 341 342 341 340 339 332 334 336 335 335 335 333 332 331 330 330 329 329 330 330 330 330 330 330 330 327
310 313 320 320 317 317 318 321 321 321 321 322 321 323 321 325 333 332 334 336 339 341 342 340 341 341 340 339 332 334 335 335 333 332 332 331 330 329 328 329 328 328 328 331 330 330 330 329 327
307 312 319 315 311 312 316 317 318 321 322 321 320 319 321 331 329 335 336 337 339 340 340 342 341 341 340 339 332 333 334 334 332 331 331 330 329 328 327 328 328 328 328 331 331 330 329 327 326
305 313 312 311 312 311 317 313 319 319 317 318 314 319 320 328 313 332 337 338 338 339 340 342 340 340 340 337 331 332 334 332 330 330 330 330 327 327 327 327 327 328 328 328 329 328 327 325 327
301 304 307 309 310 310 307 303 303 307 309 308 314 327 326 311 318 332 337 338 338 338 338 339 340 339 338 335 332 333 332 329 329 329 328 329 327 327 327 326 327 328 329 329 328 327 325 325 327
299 302 302 303 304 303 302 302 302 302 304 304 306 314 314 308 319 332 338 337 336 337 337 338 338 336 335 334 332 332 330 329 328 327 329 328 327 326 326 326 327 328 328 328 327 326 324 323 327
301 300 300 300 303 302 302 302 302 302 303 303 303 307 305 306 316 316 323 335 336 336 337 337 336 335 334 333 332 331 329 327 327 326 327 327 326 325 325 324 326 327 328 328 328 325 324 324 325
302 302 301 302 302 302 302 302 302 302 303 304 303 303 303 306 313 312 311 317 333 335 336 337 336 335 333 332 331 330 328 328 326 326 326 325 325 324 324 325 326 327 328 330 328 325 323 325 326
302 301 301 301 301 301 301 299 300 299 300 301 301 301 302 306 305 307 309 312 316 333 336 336 336 334 334 331 330 329 329 327 326 326 325 325 324 323 324 324 326 327 328 327 325 323 323 325 326
301 300 300 300 300 300 300 299 299 299 299 299 300 301 302 302 303 306 308 310 309 322 335 336 335 334 333 330 329 329 327 325 325 324 324 324 323 322 323 324 325 327 327 325 325 323 323 324 325
301 301 301 301 301 300 301 300 299 299 298 298 299 300 302 303 303 305 307 310 308 315 327 335 334 333 331 329 329 328 326 325 325 324 324 323 323 323 325 322 324 326 327 326 326 323 322 323 324
301 302 300 300 300 299 298 299 299 298 298 299 299 298 300 302 303 303 305 307 308 311 323 331 333 332 330 329 329 328 326 326 324 323 323 322 322 322 324 322 322 326 327 326 326 323 322 322 323
302 300 302 299 300 300 298 299 298 296 296 296 296 296 297 299 301 303 304 305 310 313 327 328 333 331 330 328 328 327 326 325 324 324 322 322 321 323 324 321 321 324 327 326 325 323 321 321 321
302 302 301 300 300 301 300 300 299 298 298 299 299 297 297 298 299 301 303 304 315 311 322 330 331 331 329 327 327 327 327 325 324 324 323 323 322 322 323 321 320 322 326 326 325 323 322 321 321
301 301 301 301 301 301 301 300 299 300 300 299 299 298 295 297 298 300 301 304 310 319 321 326 330 331 329 327 326 326 326 326 325 324 324 323 323 323 323 324 320 322 322 326 325 323 321 320 321
302 302 301 300 300 302 302 303 302 301 300 299 299 299 294 295 297 298 300 302 311 325 325 325 327 330 330 328 327 326 325 325 325 325 324 323 323 323 324 324 322 322 322 324 325 323 320 318 317
301 302 302 301 300 301 301 301 300 300 300 299 299 299 296 295 295 296 299 301 322 323 318 327 330 327 330 329 328 327 326 325 325 325 325 324 324 324 324 324 324 323 324 323 325 323 318 316 315
300 301 301 301 301 301 301 302 301 300 300 300 300 299 298 295 296 296 297 300 306 323 321 321 329 329 331 330 329 329 327 325 323 323 323 324 324 324 324 323 324 324 324 325 325 322 321 317 314
301 300 301 302 303 302 300 302 300 298 298 299 300 300 299 295 296 296 296 298 302 317 320 323 328 330 331 331 330 328 327 325 324 322 322 322 322 321 322 322 324 317 323 324 324 323 320 319 313
301 301 301 302 302 302 301 303 300 297 300 300 300 298 297 296 296 296 296 299 302 313 320 323 326 326 329 331 329 328 327 325 325 324 323 322 322 322 322 321 323 324 325 325 325 322 318 317 315
299 300 301 302 303 301 301 303 303 300 298 296 296 297 299 296 295 296 297 299 303 315 323 324 325 328 328 328 329 327 326 324 323 323 322 322 323 323 323 323 323 324 324 324 323 322 317 317 316
299 298 297 295 297 300 301 304 302 295 292 292 293 293 295 298 295 295 296 297 301 317 322 325 324 322 321 325 327 325 326 325 324 323 323 323 323 323 322 322 322 322 323 324 324 321 319 314 310
300 299 301 298 303 302 302 307 306 292 290 290 291 292 294 298 295 296 296 297 300 313 321 324 324 321 321 323 323 324 325 326 327 324 324 323 322 320 320 320 318 316 316 314 312 311 310 309 307
295 296 294 296 299 300 303 296 299 290 288 288 290 298 297 298 295 296 297 298 302 314 321 322 322 322 321 322 320 317 315 317 317 316 316 311 314 312 313 311 311 309 309 308 308 306 303 302 299
294 292 292 296 298 299 305 295 289 287 286 286 302 298 297 295 297 302 306 307 307 308 310 310 311 306 303 303 306 305 297 300 300 300 300 301 302 304 303 302 302 301 300 301 301 297 297 297 295
293 291 292 293 297 300 301 294 289 286 284 285 303 303 304 303 303 302 302 301 300 301 300 300 299 299 298 297 298 300 296 295 294 293 293 293 294 293 293 293 293 293 293 293 293 293 293 292 291
293 291 291 291 298 294 297 295 287 284 283 287 299 301 300 299 298 298 298 297 296 296 296 295 295 294 294 293 293 292 292 291 291 290 290 290 290 291 291 291 291 291 291 291 290 289 289 288 287
Wind_Speed
17 11 8 4 1 3 7 6 2 4 2 3 1 2 6 9 5 5 9 29 22 40 45 42 39 37 35 33 31 31 30 29 28 27 25 24 24 24 22 22 21 20 19 18 18 18 17 16 16
16 7 3 2 2 7 9 9 10 12 6 7 2 4 3 8 3 5 5 16 26 45 45 43 41 39 37 34 33 32 31 30 28 27 26 24 24 23 23 22 21 20 19 19 18 17 16 16 16
7 3 3 3 5 18 7 5 17 11 6 4 7 2 4 4 1 3 8 20 28 40 42 43 41 39 38 34 35 34 33 32 31 28 27 25 23 23 22 22 21 21 20 18 17 17 16 17 16
5 5 3 5 19 4 3 2 4 5 4 6 2 8 4 3 4 7 7 22 33 35 38 43 42 39 38 35 35 35 34 32 31 28 25 24 24 23 23 22 21 20 19 18 17 16 16 16 15
3 2 2 6 14 5 6 5 4 6 4 4 2 6 6 7 11 9 11 25 32 31 33 43 43 40 38 35 35 35 33 32 29 27 25 25 24 23 22 20 21 20 18 17 17 16 15 15 14
3 2 4 7 7 4 4 7 6 4 4 5 5 5 5 9 23 7 16 25 26 27 26 35 40 39 38 35 34 36 34 32 30 28 25 24 24 22 21 22 20 19 18 16 16 15 16 15 14
5 3 5 5 3 4 2 6 4 7 5 2 6 4 4 7 32 13 15 22 26 24 29 30 36 37 36 35 35 36 34 33 31 29 26 26 24 22 21 20 20 18 18 15 16 16 15 14 14
4 3 3 3 2 5 4 7 8 7 4 10 3 1 5 9 31 12 16 19 25 26 29 33 35 35 35 34 35 36 35 32 31 29 27 26 25 23 21 19 20 18 18 16 16 16 15 15 15
3 1 3 6 5 4 7 6 5 5 5 4 6 4 5 24 18 10 15 17 20 26 31 33 33 35 33 34 35 36 33 31 29 27 28 27 27 24 22 20 20 18 19 17 16 15 14 14 15
3 3 7 7 3 4 6 4 4 6 10 5 12 5 17 21 12 13 14 10 21 26 31 35 34 35 34 34 35 37 35 31 29 29 29 29 28 26 23 21 20 20 18 17 16 14 13 14 17
3 5 4 3 5 5 4 5 3 5 16 6 11 11 10 11 10 4 13 15 17 27 29 35 35 36 35 33 37 37 36 34 31 33 31 30 29 26 24 23 22 21 19 17 18 15 15 16 17
4 7 6 4 3 4 5 6 8 10 16 14 13 8 7 8 9 10 11 16 17 20 29 33 37 37 36 30 37 35 36 33 33 33 32 32 29 27 26 26 24 22 22 20 17 15 15 18 19
9 8 8 8 7 9 9 13 13 15 17 14 13 14 10 9 10 16 19 20 21 17 30 35 38 40 39 34 34 36 39 33 33 32 33 32 29 29 28 26 25 23 22 20 18 16 17 19 20
4 5 8 9 13 12 13 20 5 15 12 14 11 11 11 15 14 19 18 19 22 20 15 34 39 41 41 39 36 38 37 36 33 30 32 32 31 30 29 28 26 24 23 20 18 17 16 18 20
6 12 16 16 17 11 9 11 11 14 13 15 16 8 11 15 18 15 20 22 19 21 22 28 37 42 41 38 40 39 39 38 35 32 31 32 31 31 30 29 27 26 24 21 19 18 17 17 19
5 5 7 2 2 6 7 16 10 10 8 10 12 8 10 14 15 19 23 23 23 17 22 25 36 35 45 46 39 37 39 39 37 37 33 31 31 31 30 29 27 26 25 22 21 20 18 17 18
4 8 11 15 7 8 10 15 7 6 5 12 17 11 9 9 10 18 24 27 22 17 19 20 31 36 40 39 37 37 41 41 39 38 37 34 32 30 30 29 29 27 26 25 23 22 20 19 17
10 15 15 17 5 9 14 17 12 17 12 15 17 14 9 8 11 16 18 19 25 22 12 20 23 15 37 35 30 28 33 34 37 39 38 36 34 33 30 30 30 28 28 27 26 25 23 20 18
15 17 23 22 17 16 18 21 19 20 16 16 17 16 9 9 11 19 21 21 21 19 14 15 25 20 32 31 29 28 27 28 31 35 38 37 35 34 33 31 30 28 29 31 29 28 27 20 19
13 18 22 21 12 11 17 22 19 17 15 17 17 17 10 6 8 10 17 19 14 19 8 16 23 21 39 36 35 30 29 29 34 36 37 36 35 35 36 36 32 29 27 30 31 30 26 22 21
13 12 18 19 17 10 17 16 15 17 20 19 18 18 11 10 10 11 7 18 10 18 13 11 24 29 32 28 33 28 28 21 22 25 29 35 35 36 36 38 34 32 30 35 34 34 35 28 26
11 4 10 13 11 5 5 7 12 6 11 10 15 15 15 10 10 10 7 10 15 14 10 14 18 14 27 34 36 34 31 23 21 30 33 36 35 35 36 37 34 32 37 36 36 36 38 31 25
9 14 16 19 14 12 8 5 6 6 9 15 14 10 6 8 11 12 9 13 17 13 8 11 9 10 11 17 28 28 25 24 26 31 32 33 35 34 35 38 38 38 38 37 35 39 38 38 27
14 11 20 9 6 4 4 8 3 5 12 17 16 16 14 9 9 8 10 12 12 7 13 8 7 7 6 8 13 24 25 22 24 25 27 30 31 33 34 34 37 36 36 37 37 39 38 40 39
17 14 4 5 2 4 5 5 5 17 22 19 22 19 16 13 8 8 8 6 9 6 8 14 15 7 3 4 9 4 20 22 24 25 25 25 25 28 32 30 29 31 33 35 36 37 37 34 29
14 8 4 5 4 7 7 3 4 23 28 22 21 22 14 12 8 7 7 5 6 2 9 14 18 14 8 6 8 15 28 25 23 24 24 22 18 16 20 20 18 16 17 17 15 15 15 17 17
9 7 16 5 10 4 3 8 2 30 34 36 36 4 7 7 7 6 5 2 7 4 10 12 11 12 13 16 18 20 17 9 13 18 17 18 15 11 8 6 3 5 7 5 1 5 7 9 9
9 11 5 3 4 4 5 6 10 29 33 34 18 12 10 10 10 12 12 15 22 25 25 29 29 33 30 32 35 34 31 34 34 35 33 31 30 24 22 19 19 17 14 11 12 17 17 16 17
10 8 4 5 3 3 4 3 11 20 26 27 18 19 20 18 16 16 15 23 29 31 33 31 34 36 36 35 43 42 36 40 41 43 38 39 37 34 36 32 32 30 27 26 27 26 24 24 22
9 14 5 3 4 3 3 2 19 21 23 23 20 18 20 18 17 18 17 28 32 30 33 34 33 40 34 36 45 46 40 41 43 44 44 42 43 41 38 35 35 34 31 29 30 32 30 29 29
Wind_Direction
340 340 330 352 16 246 229 229 192 194 234 196 164 191 200 203 196 216 329 184 169 171 171 175 174 170 167 166 162 163 164 160 156 159 158 154 152 149 149 148 146 144 144 143 143 141 142 141 140
341 352 34 84 194 243 241 208 231 219 225 337 320 289 268 248 248 302 122 180 180 170 172 175 175 175 170 172 164 163 166 163 160 163 159 157 154 152 151 152 150 148 147 147 146 145 144 145 144
348 17 96 163 216 235 257 198 241 243 261 293 314 212 272 260 272 225 218 186 175 171 173 176 176 178 174 176 168 166 167 164 163 161 160 158 157 156 155 154 153 152 151 150 149 149 148 148 148
354 22 15 242 240 290 213 317 340 323 321 237 255 278 295 289 296 293 252 183 178 172 175 177 178 179 176 177 171 169 169 167 165 163 168 162 161 161 158 157 156 155 154 153 153 152 153 154 153
48 66 239 251 266 289 303 299 315 271 324 283 12 269 292 301 310 271 202 181 174 174 176 179 180 181 178 178 174 171 171 168 165 167 170 165 165 163 162 162 159 157 159 155 152 155 160 159 160
52 97 225 246 263 328 309 267 268 268 236 288 287 297 257 38 16 311 191 179 173 174 178 179 183 181 180 179 177 175 176 171 170 171 174 172 168 169 169 164 164 164 162 158 157 160 166 167 166
132 144 231 285 261 294 258 342 341 303 321 282 312 256 288 355 340 314 201 181 173 178 179 179 186 184 182 184 178 177 177 175 177 176 179 173 175 175 174 170 169 170 163 163 165 169 171 172 166
111 112 309 263 349 281 24 358 341 7 299 317 322 357 327 311 336 294 192 187 177 180 184 182 179 184 185 186 184 178 180 180 179 176 182 180 176 179 177 175 175 174 168 171 174 176 174 175 171
123 98 217 237 221 265 348 4 314 298 262 332 303 309 279 330 341 313 185 190 186 183 188 187 180 188 188 188 186 181 181 179 177 183 183 182 178 181 179 180 179 177 176 176 175 179 179 182 180
151 184 226 211 201 278 299 296 315 319 309 287 284 315 325 331 353 0 332 227 199 188 187 189 186 189 191 188 186 183 180 179 182 186 187 182 181 182 180 185 183 183 181 177 181 182 185 188 190
222 222 248 274 276 267 248 285 260 285 282 231 305 302 309 316 313 337 310 299 263 208 191 185 187 189 188 186 185 185 182 180 185 187 188 188 185 186 187 186 189 186 183 181 188 191 190 191 189
279 247 252 288 325 305 286 299 276 261 267 268 259 263 288 285 297 296 282 281 294 239 205 185 184 187 184 185 187 185 183 185 188 190 190 189 187 190 190 193 192 190 188 188 192 195 192 189 187
247 260 257 268 292 277 266 259 260 268 271 273 276 274 257 272 271 283 281 271 281 293 217 188 184 185 183 186 185 188 186 186 189 190 193 193 192 195 196 197 195 195 193 194 194 197 196 193 194
234 267 276 284 278 268 266 268 217 249 250 259 259 262 269 275 276 280 274 265 276 280 261 190 186 181 179 184 184 188 188 191 190 192 194 197 198 199 200 199 199 201 200 199 201 200 195 198 203
270 282 284 266 261 256 227 264 235 248 255 257 262 256 256 257 264 261 263 265 270 288 279 240 181 178 179 182 185 187 189 192 191 195 196 201 199 204 206 203 201 202 203 204 203 201 203 206 210
281 255 283 136 181 242 162 272 270 243 242 265 277 262 254 258 260 265 264 265 256 270 260 257 189 182 179 180 182 184 190 194 194 198 197 202 205 209 209 208 208 204 207 207 208 205 204 208 214
195 267 264 294 239 252 193 266 232 258 255 282 283 272 255 263 266 266 269 268 243 252 245 251 226 187 181 175 180 185 193 195 197 200 202 203 209 210 213 212 212 209 210 211 211 209 211 210 215
287 287 284 283 283 270 271 256 263 276 266 253 265 269 248 255 262 263 283 288 255 243 255 248 230 206 170 168 179 184 187 191 197 203 206 208 211 213 217 219 217 215 215 214 214 215 211 217 219
273 281 284 280 283 279 267 262 258 261 256 249 251 259 239 238 260 271 278 294 247 229 211 226 225 210 174 171 178 182 186 187 194 204 209 212 213 214 216 221 221 222 223 219 218 217 213 212 207
283 282 280 282 284 276 271 268 267 256 250 239 241 251 239 215 258 269 276 288 240 211 186 233 221 220 185 169 184 183 188 192 199 205 211 214 213 216 219 222 223 222 224 224 224 220 208 212 207
282 271 282 279 307 262 271 277 261 254 245 246 242 240 236 206 228 254 257 275 261 221 188 206 210 202 204 185 175 179 182 192 191 202 209 216 218 220 221 222 224 223 230 226 227 231 219 207 213
301 312 291 288 306 296 76 298 300 260 245 237 247 249 236 208 216 237 234 264 268 236 205 211 209 204 209 196 174 178 178 182 191 197 209 215 216 219 223 222 224 224 230 227 233 226 224 221 208
267 292 284 278 270 289 271 236 279 15 10 357 352 322 264 229 219 226 219 236 259 255 223 206 209 227 249 188 172 178 189 190 187 196 206 215 214 219 223 224 224 228 229 231 232 231 228 229 224
275 295 294 269 243 250 259 198 324 24 345 329 324 321 320 272 228 237 230 241 258 257 232 162 175 161 148 212 199 190 195 181 179 190 198 210 218 221 225 228 231 233 234 233 238 238 236 236 233
333 335 314 349 8 228 351 190 57 5 353 333 318 307 298 296 239 224 230 217 251 227 190 154 166 136 111 116 187 211 215 192 190 196 201 211 219 226 228 230 237 238 243 245 247 244 244 238 232
321 332 319 310 313 313 274 304 123 3 347 328 308 289 263 268 235 208 225 234 239 237 176 160 167 143 91 184 184 233 232 220 222 219 213 212 219 239 240 244 242 252 247 252 255 249 234 234 222
317 337 304 254 259 238 245 358 299 348 340 341 329 137 192 240 196 174 115 4 4 351 173 176 126 91 50 65 75 56 55 91 95 102 104 94 93 77 76 61 45 5 356 2 328 120 82 70 63
346 348 348 339 317 325 42 61 346 344 337 328 357 48 45 42 57 60 59 52 49 50 68 78 86 76 74 75 77 71 43 69 72 75 75 74 72 67 67 64 60 52 52 71 84 83 80 93 84
6 358 316 290 273 336 334 88 360 347 332 325 32 55 64 65 71 70 62 60 57 55 59 64 70 73 70 71 74 75 65 64 66 68 65 70 74 69 69 68 73 73 72 70 76 78 79 76 79
29 2 337 264 28 320 306 75 8 351 338 348 20 41 59 60 62 62 64 64 59 58 62 64 68 72 69 74 75 72 70 69 69 69 72 71 73 75 75 74 74 73 71 71 72 73 71 69 65